Time,TemperatureF,DewpointF,PressureIn,WindDirection,WindDirectionDegrees,WindSpeedMPH,WindSpeedGustMPH,Humidity,HourlyPrecipIn,Conditions,Clouds,dailyrainin,SoftwareType,DateUTC
2013-08-28 00:01:00,72.9,66.7,29.82,SSW,202,0.0,0.0,81,0.00,CLR,,0.00,WeatherDisplay:10.37,2013-08-28 04:01:00,
2013-08-28 00:06:00,72.9,66.7,29.82,SSW,202,0.0,0.0,81,0.00,CLR,,0.00,WeatherDisplay:10.37,2013-08-28 04:06:00,
2013-08-28 00:11:00,72.9,66.7,29.82,SSW,202,0.0,0.0,81,0.00,CLR,,0.00,WeatherDisplay:10.37,2013-08-28 04:11:00,
2013-08-28 00:15:00,72.9,66.7,29.82,SSW,202,0.0,0.0,81,0.00,CLR,,0.00,WeatherDisplay:10.37,2013-08-28 04:15:00,
2013-08-28 00:20:00,72.7,66.5,29.82,SSW,202,0.0,0.0,81,0.00,CLR,,0.00,WeatherDisplay:10.37,2013-08-28 04:20:00,
2013-08-28 00:25:00,72.7,66.2,29.82,SSW,202,0.0,0.0,80,0.00,CLR,,0.00,WeatherDisplay:10.37,2013-08-28 04:25:00,
2013-08-28 00:30:00,72.5,66.3,29.82,SSW,202,0.0,0.0,81,0.00,CLR,,0.00,WeatherDisplay:10.37,2013-08-28 04:30:00,
2013-08-28 00:35:00,72.3,66.2,29.82,SSW,202,0.0,0.0,81,0.00,CLR,,0.00,WeatherDisplay:10.37,2013-08-28 04:35:00,
2013-08-28 00:40:00,72.3,66.2,29.82,SSW,202,0.0,0.0,81,0.00,CLR,,0.00,WeatherDisplay:10.37,2013-08-28 04:40:00,
2013-08-28 00:45:00,72.1,66.0,29.82,SSW,202,0.0,0.0,81,0.00,CLR,,0.00,WeatherDisplay:10.37,2013-08-28 04:45:00,
2013-08-28 00:50:00,72.1,66.0,29.82,SSW,202,0.0,0.0,81,0.00,CLR,,0.00,WeatherDisplay:10.37,2013-08-28 04:50:00,
2013-08-28 00:55:00,72.0,66.2,29.81,SSW,202,0.0,0.0,82,0.00,CLR,,0.00,WeatherDisplay:10.37,2013-08-28 04:55:00,
2013-08-28 01:00:00,71.8,66.0,29.81,SSW,202,0.0,0.0,82,0.00,CLR,,0.00,WeatherDisplay:10.37,2013-08-28 05:00:00,
2013-08-28 01:05:00,71.8,66.0,29.81,SSW,202,0.0,0.0,82,0.00,CLR,,0.00,WeatherDisplay:10.37,2013-08-28 05:05:00,
2013-08-28 01:10:00,71.6,65.8,29.81,SSW,202,0.0,0.0,82,0.00,CLR,,0.00,WeatherDisplay:10.37,2013-08-28 05:10:00,
2013-08-28 01:15:00,71.6,65.8,29.81,SSW,202,0.0,0.0,82,0.00,CLR,,0.00,WeatherDisplay:10.37,2013-08-28 05:15:00,
2013-08-28 01:20:00,71.6,66.2,29.81,SSW,202,0.0,0.0,83,0.00,CLR,,0.00,WeatherDisplay:10.37,2013-08-28 05:20:00,
2013-08-28 01:25:00,71.6,66.2,29.81,SSW,202,0.0,0.0,83,0.00,CLR,,0.00,WeatherDisplay:10.37,2013-08-28 05:25:00,
2013-08-28 01:30:00,71.4,66.0,29.80,SSW,202,0.0,0.0,83,0.00,CLR,,0.00,WeatherDisplay:10.37,2013-08-28 05:30:00,
2013-08-28 01:35:00,71.2,65.8,29.80,SSW,202,0.0,0.0,83,0.00,CLR,,0.00,WeatherDisplay:10.37,2013-08-28 05:35:00,
2013-08-28 01:40:00,71.2,65.8,29.80,SSW,202,0.0,0.0,83,0.00,CLR,,0.00,WeatherDisplay:10.37,2013-08-28 05:40:00,
2013-08-28 01:45:00,71.2,66.2,29.80,SSW,202,0.0,0.0,84,0.00,CLR,,0.00,WeatherDisplay:10.37,2013-08-28 05:45:00,
2013-08-28 01:50:00,71.1,66.0,29.80,SSW,202,0.0,0.0,84,0.00,CLR,,0.00,WeatherDisplay:10.37,2013-08-28 05:50:00,
2013-08-28 01:55:00,71.1,66.0,29.80,SSW,202,0.0,0.0,84,0.00,CLR,,0.00,WeatherDisplay:10.37,2013-08-28 05:55:00,
2013-08-28 02:00:00,70.9,65.8,29.80,SSW,202,0.0,0.0,84,0.00,CLR,,0.00,WeatherDisplay:10.37,2013-08-28 06:00:00,
2013-08-28 02:05:00,70.9,65.8,29.79,SSW,202,0.0,0.0,84,0.00,CLR,,0.00,WeatherDisplay:10.37,2013-08-28 06:05:00,
2013-08-28 02:10:00,70.9,65.8,29.80,SSW,202,0.0,0.0,84,0.00,CLR,,0.00,WeatherDisplay:10.37,2013-08-28 06:10:00,
2013-08-28 02:15:00,70.7,65.6,29.80,SSW,202,0.0,0.0,84,0.00,CLR,,0.00,WeatherDisplay:10.37,2013-08-28 06:15:00,
2013-08-28 02:20:00,70.5,65.4,29.80,SSW,202,0.0,0.0,84,0.00,CLR,,0.00,WeatherDisplay:10.37,2013-08-28 06:20:00,
2013-08-28 02:25:00,70.5,65.4,29.80,SSW,202,0.0,0.0,84,0.00,CLR,,0.00,WeatherDisplay:10.37,2013-08-28 06:25:00,
2013-08-28 02:30:00,70.3,65.3,29.80,SSW,202,0.0,0.0,84,0.00,CLR,,0.00,WeatherDisplay:10.37,2013-08-28 06:30:00,
2013-08-28 02:35:00,70.3,65.6,29.79,SSW,202,0.0,0.0,85,0.00,CLR,,0.00,WeatherDisplay:10.37,2013-08-28 06:35:00,
2013-08-28 02:40:00,70.2,65.4,29.80,SSW,202,0.0,0.0,85,0.00,CLR,,0.00,WeatherDisplay:10.37,2013-08-28 06:40:00,
2013-08-28 02:45:00,70.3,65.6,29.79,SSW,202,0.0,0.0,85,0.00,CLR,,0.00,WeatherDisplay:10.37,2013-08-28 06:45:00,
2013-08-28 02:50:00,70.2,65.4,29.79,SSW,202,0.0,0.0,85,0.00,CLR,,0.00,WeatherDisplay:10.37,2013-08-28 06:50:00,
2013-08-28 02:55:00,70.2,65.8,29.79,SSW,202,0.0,0.0,86,0.00,CLR,,0.00,WeatherDisplay:10.37,2013-08-28 06:55:00,
2013-08-28 03:00:00,70.2,65.8,29.78,SSW,202,0.0,0.0,86,0.00,CLR,,0.00,WeatherDisplay:10.37,2013-08-28 07:00:00,
2013-08-28 03:05:00,70.2,65.8,29.79,SSW,202,0.0,0.0,86,0.00,CLR,,0.00,WeatherDisplay:10.37,2013-08-28 07:05:00,
2013-08-28 03:10:00,70.2,65.8,29.79,SSW,202,0.0,0.0,86,0.00,CLR,,0.00,WeatherDisplay:10.37,2013-08-28 07:10:00,
2013-08-28 03:15:00,70.2,65.8,29.79,SSW,202,0.0,0.0,86,0.00,CLR,,0.00,WeatherDisplay:10.37,2013-08-28 07:15:00,
2013-08-28 03:20:00,70.2,65.8,29.78,SSW,202,0.0,0.0,86,0.00,CLR,,0.00,WeatherDisplay:10.37,2013-08-28 07:20:00,
2013-08-28 03:25:00,70.2,65.8,29.78,SSW,202,0.0,0.0,86,0.00,CLR,,0.00,WeatherDisplay:10.37,2013-08-28 07:25:00,
2013-08-28 03:30:00,70.0,65.6,29.78,SSW,202,0.0,0.0,86,0.00,CLR,,0.00,WeatherDisplay:10.37,2013-08-28 07:30:00,
2013-08-28 03:35:00,69.8,65.4,29.78,SSW,202,0.0,0.0,86,0.00,CLR,,0.00,WeatherDisplay:10.37,2013-08-28 07:35:00,
2013-08-28 03:40:00,69.8,65.8,29.78,SSW,202,0.0,0.0,87,0.00,CLR,,0.00,WeatherDisplay:10.37,2013-08-28 07:40:00,
2013-08-28 03:45:00,69.8,65.8,29.78,SSW,202,0.0,0.0,87,0.00,CLR,,0.00,WeatherDisplay:10.37,2013-08-28 07:45:00,
2013-08-28 03:50:00,69.8,65.8,29.78,SSW,202,0.0,0.0,87,0.00,CLR,,0.00,WeatherDisplay:10.37,2013-08-28 07:50:00,
2013-08-28 03:55:00,69.6,65.6,29.78,SSW,202,0.0,0.0,87,0.00,CLR,,0.00,WeatherDisplay:10.37,2013-08-28 07:55:00,
2013-08-28 04:00:00,69.6,65.6,29.78,SSW,202,0.0,0.0,87,0.00,CLR,,0.00,WeatherDisplay:10.37,2013-08-28 08:00:00,
2013-08-28 04:05:00,69.4,65.4,29.78,SSW,202,0.0,0.0,87,0.00,CLR,,0.00,WeatherDisplay:10.37,2013-08-28 08:05:00,
2013-08-28 04:10:00,69.4,65.4,29.78,SSW,202,0.0,0.0,87,0.00,CLR,,0.00,WeatherDisplay:10.37,2013-08-28 08:10:00,
2013-08-28 04:15:00,69.4,65.4,29.78,SSW,202,0.0,0.0,87,0.00,CLR,,0.00,WeatherDisplay:10.37,2013-08-28 08:15:00,
2013-08-28 04:20:00,69.4,65.4,29.78,SSW,202,0.0,0.0,87,0.00,CLR,,0.00,WeatherDisplay:10.37,2013-08-28 08:20:00,
2013-08-28 04:25:00,69.3,65.2,29.78,SSW,202,0.0,0.0,87,0.00,CLR,,0.00,WeatherDisplay:10.37,2013-08-28 08:25:00,
2013-08-28 04:30:00,69.3,65.2,29.78,SSW,202,0.0,0.0,87,0.00,CLR,,0.00,WeatherDisplay:10.37,2013-08-28 08:30:00,
2013-08-28 04:35:00,69.1,65.0,29.78,SSW,202,0.0,0.0,87,0.00,CLR,,0.00,WeatherDisplay:10.37,2013-08-28 08:35:00,
2013-08-28 04:40:00,69.1,65.4,29.78,SSW,202,0.0,0.0,88,0.00,CLR,,0.00,WeatherDisplay:10.37,2013-08-28 08:40:00,
2013-08-28 04:45:00,69.1,65.4,29.78,SSW,202,0.0,0.0,88,0.00,CLR,,0.00,WeatherDisplay:10.37,2013-08-28 08:45:00,
2013-08-28 04:50:00,69.1,65.4,29.78,SSW,202,0.0,0.0,88,0.00,CLR,,0.00,WeatherDisplay:10.37,2013-08-28 08:50:00,
2013-08-28 04:55:00,68.9,65.2,29.78,SSW,202,0.0,0.0,88,0.00,CLR,,0.00,WeatherDisplay:10.37,2013-08-28 08:55:00,
2013-08-28 05:00:00,68.9,65.2,29.78,SSW,202,0.0,0.0,88,0.00,CLR,,0.00,WeatherDisplay:10.37,2013-08-28 09:00:00,
2013-08-28 05:05:00,68.9,65.2,29.78,SSW,202,0.0,0.0,88,0.00,CLR,,0.00,WeatherDisplay:10.37,2013-08-28 09:05:00,
2013-08-28 05:10:00,68.7,65.0,29.79,SSW,202,0.0,0.0,88,0.00,CLR,,0.00,WeatherDisplay:10.37,2013-08-28 09:10:00,
2013-08-28 05:15:00,68.7,65.0,29.78,SSW,202,0.0,0.0,88,0.00,CLR,,0.00,WeatherDisplay:10.37,2013-08-28 09:15:00,
2013-08-28 05:20:00,68.7,65.0,29.78,SSW,202,0.0,0.0,88,0.00,CLR,,0.00,WeatherDisplay:10.37,2013-08-28 09:20:00,
2013-08-28 05:25:00,68.7,65.0,29.78,SSW,202,0.0,0.0,88,0.00,CLR,,0.00,WeatherDisplay:10.37,2013-08-28 09:25:00,
2013-08-28 05:30:00,68.7,65.0,29.79,SSW,202,0.0,0.0,88,0.00,CLR,,0.00,WeatherDisplay:10.37,2013-08-28 09:30:00,
2013-08-28 05:34:00,68.7,65.0,29.78,SSW,202,0.0,0.0,88,0.00,CLR,,0.00,WeatherDisplay:10.37,2013-08-28 09:34:00,
2013-08-28 05:39:00,68.7,65.0,29.79,SSW,202,0.0,0.0,88,0.00,CLR,,0.00,WeatherDisplay:10.37,2013-08-28 09:39:00,
2013-08-28 05:44:00,68.5,64.8,29.78,SSW,202,0.0,0.0,88,0.00,CLR,,0.00,WeatherDisplay:10.37,2013-08-28 09:44:00,
2013-08-28 05:49:00,68.5,64.8,29.79,SSW,202,0.0,0.0,88,0.00,CLR,,0.00,WeatherDisplay:10.37,2013-08-28 09:49:00,
2013-08-28 05:54:00,68.5,64.8,29.79,SSW,202,0.0,0.0,88,0.00,CLR,,0.00,WeatherDisplay:10.37,2013-08-28 09:54:00,
2013-08-28 05:59:00,68.5,64.8,29.79,SSW,202,0.0,0.0,88,0.00,CLR,,0.00,WeatherDisplay:10.37,2013-08-28 09:59:00,
2013-08-28 06:04:00,68.4,64.7,29.79,SSW,202,0.0,0.0,88,0.00,CLR,,0.00,WeatherDisplay:10.37,2013-08-28 10:04:00,
2013-08-28 06:09:00,68.4,64.7,29.80,SSW,202,0.0,0.0,88,0.00,CLR,,0.00,WeatherDisplay:10.37,2013-08-28 10:09:00,
2013-08-28 06:14:00,68.4,64.7,29.80,SSW,202,0.0,0.0,88,0.00,CLR,,0.00,WeatherDisplay:10.37,2013-08-28 10:14:00,
2013-08-28 06:19:00,68.4,65.0,29.80,SSW,202,0.0,0.0,89,0.00,CLR,,0.00,WeatherDisplay:10.37,2013-08-28 10:19:00,
2013-08-28 06:24:00,68.4,65.0,29.80,SSW,202,0.0,0.0,89,0.00,CLR,,0.00,WeatherDisplay:10.37,2013-08-28 10:24:00,
2013-08-28 06:29:00,68.4,65.0,29.80,SSW,202,0.0,0.0,89,0.00,CLR,,0.00,WeatherDisplay:10.37,2013-08-28 10:29:00,
2013-08-28 06:34:00,68.4,65.0,29.80,SSW,202,0.0,0.0,89,0.00,CLR,,0.00,WeatherDisplay:10.37,2013-08-28 10:34:00,
2013-08-28 06:39:00,68.2,64.8,29.80,SSW,202,0.0,0.0,89,0.00,CLR,,0.00,WeatherDisplay:10.37,2013-08-28 10:39:00,
2013-08-28 06:44:00,68.2,64.8,29.80,SSW,202,0.0,0.0,89,0.00,CLR,,0.00,WeatherDisplay:10.37,2013-08-28 10:44:00,
2013-08-28 06:49:00,68.4,65.0,29.80,SSW,202,0.0,0.0,89,0.00,CLR,,0.00,WeatherDisplay:10.37,2013-08-28 10:49:00,
2013-08-28 06:54:00,68.4,65.0,29.80,SSW,202,0.0,0.0,89,0.00,CLR,,0.00,WeatherDisplay:10.37,2013-08-28 10:54:00,
2013-08-28 06:59:00,68.4,65.0,29.80,SSE,158,0.0,0.0,89,0.00,CLR,,0.00,WeatherDisplay:10.37,2013-08-28 10:59:00,
2013-08-28 07:04:00,68.4,65.0,29.80,SSE,158,0.0,0.0,89,0.00,CLR,,0.00,WeatherDisplay:10.37,2013-08-28 11:04:00,
2013-08-28 07:09:00,68.5,65.2,29.79,ENE,68,1.1,1.1,89,0.00,CLR,,0.00,WeatherDisplay:10.37,2013-08-28 11:09:00,
2013-08-28 07:14:00,68.7,65.3,29.79,ENE,68,0.0,0.0,89,0.00,CLR,,0.00,WeatherDisplay:10.37,2013-08-28 11:14:00,
2013-08-28 07:19:00,68.7,65.3,29.79,NNW,338,0.0,0.0,89,0.00,CLR,,0.00,WeatherDisplay:10.37,2013-08-28 11:19:00,
2013-08-28 07:24:00,68.9,65.8,29.79,NNW,338,0.0,0.0,90,0.00,CLR,,0.00,WeatherDisplay:10.37,2013-08-28 11:24:00,
2013-08-28 07:29:00,68.9,65.8,29.80,NW,315,0.0,0.0,90,0.00,CLR,,0.00,WeatherDisplay:10.37,2013-08-28 11:29:00,
2013-08-28 07:34:00,69.1,65.7,29.80,NW,315,0.0,0.0,89,0.00,CLR,,0.00,WeatherDisplay:10.37,2013-08-28 11:34:00,
2013-08-28 07:39:00,69.3,66.2,29.80,NNW,338,0.0,0.0,90,0.00,CLR,,0.00,WeatherDisplay:10.37,2013-08-28 11:39:00,
2013-08-28 07:44:00,69.4,66.4,29.80,NW,315,0.0,0.0,90,0.00,CLR,,0.00,WeatherDisplay:10.37,2013-08-28 11:44:00,
2013-08-28 07:49:00,69.6,66.6,29.80,ENE,68,0.5,0.5,90,0.00,CLR,,0.00,WeatherDisplay:10.37,2013-08-28 11:49:00,
2013-08-28 07:54:00,69.8,66.7,29.80,NNE,22,0.0,0.0,90,0.00,CLR,,0.00,WeatherDisplay:10.37,2013-08-28 11:54:00,
2013-08-28 07:59:00,70.2,67.1,29.80,WNW,292,0.0,0.0,90,0.00,CLR,,0.00,WeatherDisplay:10.37,2013-08-28 11:59:00,
2013-08-28 08:04:00,70.3,66.9,29.80,West,270,0.0,0.0,89,0.00,CLR,,0.00,WeatherDisplay:10.37,2013-08-28 12:04:00,
2013-08-28 08:09:00,70.5,67.1,29.81,West,270,1.1,0.0,89,0.00,CLR,,0.00,WeatherDisplay:10.37,2013-08-28 12:09:00,
2013-08-28 08:14:00,70.9,67.8,29.80,East,90,1.1,1.1,90,0.00,CLR,,0.00,WeatherDisplay:10.37,2013-08-28 12:14:00,
2013-08-28 08:19:00,71.2,67.8,29.80,ENE,68,0.0,0.0,89,0.00,CLR,,0.00,WeatherDisplay:10.37,2013-08-28 12:19:00,
2013-08-28 08:24:00,71.2,67.8,29.80,West,270,1.1,1.1,89,0.00,CLR,,0.00,WeatherDisplay:10.37,2013-08-28 12:24:00,
2013-08-28 08:29:00,71.6,67.9,29.80,East,90,1.1,1.1,88,0.00,CLR,,0.00,WeatherDisplay:10.37,2013-08-28 12:29:00,
2013-08-28 08:34:00,72.0,68.2,29.80,East,90,0.0,0.0,88,0.00,CLR,,0.00,WeatherDisplay:10.37,2013-08-28 12:34:00,
2013-08-28 08:39:00,72.1,68.4,29.79,NE,45,0.0,0.5,88,0.00,CLR,,0.00,WeatherDisplay:10.37,2013-08-28 12:39:00,
2013-08-28 08:44:00,72.5,68.7,29.79,ENE,68,1.1,0.0,88,0.00,CLR,,0.00,WeatherDisplay:10.37,2013-08-28 12:44:00,
2013-08-28 08:49:00,73.0,68.9,29.79,NW,315,1.1,0.0,87,0.00,CLR,,0.00,WeatherDisplay:10.37,2013-08-28 12:49:00,
2013-08-28 08:54:00,73.2,69.5,29.80,North,0,0.0,0.0,88,0.00,CLR,,0.00,WeatherDisplay:10.37,2013-08-28 12:54:00,
2013-08-28 08:59:00,73.6,69.5,29.80,West,270,1.1,1.4,87,0.00,CLR,,0.00,WeatherDisplay:10.37,2013-08-28 12:59:00,
2013-08-28 09:04:00,73.8,69.6,29.80,SW,225,0.5,0.5,87,0.00,CLR,,0.00,WeatherDisplay:10.37,2013-08-28 13:04:00,
2013-08-28 09:09:00,74.1,69.7,29.80,NNE,22,0.0,0.0,86,0.00,CLR,,0.00,WeatherDisplay:10.37,2013-08-28 13:09:00,
2013-08-28 09:14:00,74.5,70.0,29.80,SE,135,1.1,1.1,86,0.00,CLR,,0.00,WeatherDisplay:10.37,2013-08-28 13:14:00,
2013-08-28 09:19:00,74.8,70.0,29.80,ENE,68,1.1,1.1,85,0.00,CLR,,0.00,WeatherDisplay:10.37,2013-08-28 13:19:00,
2013-08-28 09:24:00,75.2,70.4,29.80,South,180,0.0,0.0,85,0.00,CLR,,0.00,WeatherDisplay:10.37,2013-08-28 13:24:00,
2013-08-28 09:29:00,75.6,70.4,29.80,SSW,202,0.0,0.5,84,0.00,CLR,,0.00,WeatherDisplay:10.37,2013-08-28 13:29:00,
2013-08-28 09:34:00,75.7,70.6,29.80,East,90,1.1,1.1,84,0.00,CLR,,0.00,WeatherDisplay:10.37,2013-08-28 13:34:00,
2013-08-28 09:39:00,76.1,70.2,29.80,ENE,68,0.0,0.0,82,0.00,CLR,,0.00,WeatherDisplay:10.37,2013-08-28 13:39:00,
2013-08-28 09:44:00,76.5,70.9,29.79,SSW,202,1.8,1.8,83,0.00,CLR,,0.00,WeatherDisplay:10.37,2013-08-28 13:44:00,
2013-08-28 09:49:00,76.6,70.7,29.79,SSW,202,1.1,1.1,82,0.00,CLR,,0.00,WeatherDisplay:10.37,2013-08-28 13:49:00,
2013-08-28 09:54:00,76.8,70.9,29.79,NW,315,1.6,1.6,82,0.00,CLR,,0.00,WeatherDisplay:10.37,2013-08-28 13:54:00,
2013-08-28 09:59:00,76.8,70.5,29.79,East,90,2.3,2.3,81,0.00,CLR,,0.00,WeatherDisplay:10.37,2013-08-28 13:59:00,
2013-08-28 10:04:00,77.0,70.7,29.79,NW,315,1.1,1.1,81,0.00,CLR,,0.00,WeatherDisplay:10.37,2013-08-28 14:04:00,
2013-08-28 10:09:00,77.4,70.7,29.79,East,90,0.2,0.2,80,0.00,CLR,,0.00,WeatherDisplay:10.37,2013-08-28 14:09:00,
2013-08-28 10:14:00,77.7,71.1,29.79,NW,315,0.5,0.5,80,0.00,CLR,,0.00,WeatherDisplay:10.37,2013-08-28 14:14:00,
2013-08-28 10:19:00,77.9,70.9,29.79,North,0,1.1,1.1,79,0.00,CLR,,0.00,WeatherDisplay:10.37,2013-08-28 14:19:00,
2013-08-28 10:24:00,78.1,70.7,29.79,ENE,68,0.0,0.0,78,0.00,CLR,,0.00,WeatherDisplay:10.37,2013-08-28 14:24:00,
2013-08-28 10:29:00,78.4,71.0,29.79,ENE,68,1.1,1.1,78,0.00,CLR,,0.00,WeatherDisplay:10.37,2013-08-28 14:29:00,
2013-08-28 10:34:00,78.6,70.8,29.79,ESE,112,0.0,0.0,77,0.00,CLR,,0.00,WeatherDisplay:10.37,2013-08-28 14:34:00,
2013-08-28 10:39:00,78.8,70.6,29.79,East,90,1.1,0.0,76,0.00,CLR,,0.00,WeatherDisplay:10.37,2013-08-28 14:39:00,
2013-08-28 10:44:00,79.2,70.5,29.80,East,90,1.1,1.1,75,0.00,CLR,,0.00,WeatherDisplay:10.37,2013-08-28 14:44:00,
2013-08-28 10:49:00,79.7,70.7,29.80,ENE,68,1.1,0.0,74,0.00,CLR,,0.00,WeatherDisplay:10.37,2013-08-28 14:49:00,
2013-08-28 10:54:00,79.9,70.4,29.80,NNE,22,0.9,0.9,73,0.00,CLR,,0.00,WeatherDisplay:10.37,2013-08-28 14:54:00,
2013-08-28 10:59:00,80.2,71.2,29.80,ENE,68,1.1,1.1,74,0.00,CLR,,0.00,WeatherDisplay:10.37,2013-08-28 14:59:00,
2013-08-28 11:04:00,80.4,71.0,29.80,WSW,248,0.0,0.0,73,0.00,CLR,,0.00,WeatherDisplay:10.37,2013-08-28 15:04:00,
2013-08-28 11:09:00,80.6,71.1,29.80,SW,225,2.3,2.3,73,0.00,CLR,,0.00,WeatherDisplay:10.37,2013-08-28 15:09:00,
2013-08-28 11:14:00,80.8,71.3,29.79,WNW,292,1.1,1.1,73,0.00,CLR,,0.00,WeatherDisplay:10.37,2013-08-28 15:14:00,
2013-08-28 11:19:00,81.0,71.5,29.79,SW,225,1.1,1.1,73,0.00,CLR,,0.00,WeatherDisplay:10.37,2013-08-28 15:19:00,
2013-08-28 11:24:00,81.3,71.4,29.79,East,90,1.1,0.0,72,0.00,CLR,,0.00,WeatherDisplay:10.37,2013-08-28 15:24:00,
2013-08-28 11:29:00,81.5,71.2,29.78,ENE,68,1.1,1.1,71,0.00,CLR,,0.00,WeatherDisplay:10.37,2013-08-28 15:29:00,
2013-08-28 11:34:00,81.7,71.4,29.78,WNW,292,3.5,3.5,71,0.00,CLR,,0.00,WeatherDisplay:10.37,2013-08-28 15:34:00,
2013-08-28 11:39:00,81.9,71.5,29.78,WSW,248,1.8,1.8,71,0.00,CLR,,0.00,WeatherDisplay:10.37,2013-08-28 15:39:00,
2013-08-28 11:44:00,82.2,72.3,29.78,WSW,248,1.1,1.1,72,0.00,CLR,,0.00,WeatherDisplay:10.37,2013-08-28 15:44:00,
2013-08-28 11:49:00,82.6,72.6,29.78,NNW,338,2.3,2.3,72,0.00,CLR,,0.00,WeatherDisplay:10.37,2013-08-28 15:49:00,
2013-08-28 11:54:00,83.1,72.7,29.78,ENE,68,0.5,0.5,71,0.00,CLR,,0.00,WeatherDisplay:10.37,2013-08-28 15:54:00,
2013-08-28 11:59:00,83.3,72.9,29.78,South,180,0.0,0.0,71,0.00,CLR,,0.00,WeatherDisplay:10.37,2013-08-28 15:59:00,
2013-08-28 12:04:00,83.7,72.8,29.78,South,180,0.2,0.2,70,0.00,CLR,,0.00,WeatherDisplay:10.37,2013-08-28 16:04:00,
2013-08-28 12:09:00,83.7,72.0,29.77,ENE,68,2.3,2.3,68,0.00,CLR,,0.00,WeatherDisplay:10.37,2013-08-28 16:09:00,
2013-08-28 12:14:00,83.8,72.6,29.77,East,90,0.0,0.7,69,0.00,CLR,,0.00,WeatherDisplay:10.37,2013-08-28 16:14:00,
2013-08-28 12:19:00,84.0,72.3,29.77,NW,315,1.1,1.1,68,0.00,CLR,,0.00,WeatherDisplay:10.37,2013-08-28 16:19:00,
2013-08-28 12:24:00,84.2,72.5,29.77,West,270,1.1,1.1,68,0.00,CLR,,0.00,WeatherDisplay:10.37,2013-08-28 16:24:00,
2013-08-28 12:29:00,84.0,72.3,29.77,South,180,3.3,3.3,68,0.00,CLR,,0.00,WeatherDisplay:10.37,2013-08-28 16:29:00,
2013-08-28 12:34:00,83.1,70.6,29.78,SW,225,2.3,3.8,66,0.00,CLR,,0.00,WeatherDisplay:10.37,2013-08-28 16:34:00,
2013-08-28 12:39:00,82.0,69.1,29.79,WSW,248,5.8,5.8,65,0.00,CLR,,0.00,WeatherDisplay:10.37,2013-08-28 16:39:00,
2013-08-28 12:44:00,80.6,68.6,29.78,WNW,292,8.1,8.1,67,0.00,CLR,,0.00,WeatherDisplay:10.37,2013-08-28 16:44:00,
2013-08-28 12:49:00,79.0,68.8,29.79,WSW,248,6.9,6.9,71,0.00,CLR,,0.00,WeatherDisplay:10.37,2013-08-28 16:49:00,
2013-08-28 12:54:00,77.5,68.2,29.79,SSW,202,2.4,2.4,73,0.00,CLR,,0.00,WeatherDisplay:10.37,2013-08-28 16:54:00,
2013-08-28 12:59:00,76.3,67.4,29.79,SSW,202,4.6,4.6,74,0.00,CLR,,0.00,WeatherDisplay:10.37,2013-08-28 16:59:00,
2013-08-28 13:04:00,75.7,67.2,29.79,SSW,202,2.3,2.3,75,0.02,RA,,0.02,WeatherDisplay:10.37,2013-08-28 17:04:00,
2013-08-28 13:09:00,75.2,67.1,29.78,ENE,68,0.0,0.0,76,0.05,RA,,0.05,WeatherDisplay:10.37,2013-08-28 17:09:00,
2013-08-28 13:14:00,74.7,67.3,29.79,WSW,248,1.1,1.1,78,0.06,RA,,0.06,WeatherDisplay:10.37,2013-08-28 17:14:00,
2013-08-28 13:19:00,74.1,67.2,29.79,West,270,0.0,0.0,79,0.06,RA,,0.06,WeatherDisplay:10.37,2013-08-28 17:19:00,
2013-08-28 13:24:00,73.8,67.6,29.79,WSW,248,0.0,0.0,81,0.06,CLR,,0.06,WeatherDisplay:10.37,2013-08-28 17:24:00,
2013-08-28 13:29:00,73.6,67.7,29.78,ENE,68,1.1,1.1,82,0.06,CLR,,0.06,WeatherDisplay:10.37,2013-08-28 17:29:00,
2013-08-28 13:34:00,73.6,67.7,29.78,NNE,22,0.0,0.0,82,0.06,CLR,,0.06,WeatherDisplay:10.37,2013-08-28 17:34:00,
2013-08-28 13:39:00,73.6,68.1,29.78,WSW,248,0.0,0.0,83,0.06,CLR,,0.06,WeatherDisplay:10.37,2013-08-28 17:39:00,
2013-08-28 13:44:00,73.8,68.3,29.79,WSW,248,0.0,0.0,83,0.06,CLR,,0.06,WeatherDisplay:10.37,2013-08-28 17:44:00,
2013-08-28 13:49:00,73.6,68.1,29.79,WSW,248,0.0,0.0,83,0.06,CLR,,0.06,WeatherDisplay:10.37,2013-08-28 17:49:00,
2013-08-28 13:54:00,73.8,68.6,29.78,SSW,202,0.0,0.0,84,0.06,CLR,,0.06,WeatherDisplay:10.37,2013-08-28 17:54:00,
2013-08-28 13:59:00,73.8,68.6,29.79,SSE,158,1.6,1.6,84,0.06,CLR,,0.06,WeatherDisplay:10.37,2013-08-28 17:59:00,
2013-08-28 14:04:00,73.8,69.0,29.78,SW,225,2.3,2.3,85,0.04,CLR,,0.06,WeatherDisplay:10.37,2013-08-28 18:04:00,
2013-08-28 14:09:00,73.8,69.0,29.79,WSW,248,0.0,0.5,85,0.01,CLR,,0.06,WeatherDisplay:10.37,2013-08-28 18:09:00,
2013-08-28 14:14:00,73.9,69.1,29.79,WSW,248,1.1,1.1,85,0.00,CLR,,0.06,WeatherDisplay:10.37,2013-08-28 18:14:00,
2013-08-28 14:19:00,73.9,69.1,29.79,SSW,202,2.3,2.3,85,0.00,CLR,,0.06,WeatherDisplay:10.37,2013-08-28 18:19:00,
2013-08-28 14:24:00,74.1,69.3,29.79,SSW,202,1.1,1.1,85,0.00,CLR,,0.06,WeatherDisplay:10.37,2013-08-28 18:24:00,
2013-08-28 14:29:00,73.9,69.1,29.80,SW,225,0.0,0.0,85,0.00,CLR,,0.06,WeatherDisplay:10.37,2013-08-28 18:29:00,
2013-08-28 14:34:00,74.1,69.7,29.80,SE,135,1.1,0.0,86,0.00,CLR,,0.06,WeatherDisplay:10.37,2013-08-28 18:34:00,
2013-08-28 14:39:00,74.1,69.7,29.79,WSW,248,0.0,0.0,86,0.00,CLR,,0.06,WeatherDisplay:10.37,2013-08-28 18:39:00,
2013-08-28 14:44:00,74.1,69.7,29.79,WSW,248,0.0,0.0,86,0.00,CLR,,0.06,WeatherDisplay:10.37,2013-08-28 18:44:00,
2013-08-28 14:49:00,74.1,69.7,29.78,ESE,112,0.0,0.0,86,0.00,CLR,,0.06,WeatherDisplay:10.37,2013-08-28 18:49:00,
2013-08-28 14:54:00,73.9,69.5,29.79,SW,225,0.0,0.0,86,0.00,CLR,,0.06,WeatherDisplay:10.37,2013-08-28 18:54:00,
2013-08-28 14:59:00,74.1,69.7,29.80,ESE,112,0.0,0.0,86,0.00,CLR,,0.06,WeatherDisplay:10.37,2013-08-28 18:59:00,
2013-08-28 15:04:00,74.1,69.7,29.80,SSE,158,0.2,0.2,86,0.00,CLR,,0.06,WeatherDisplay:10.37,2013-08-28 19:04:00,
2013-08-28 15:09:00,74.1,70.0,29.80,WNW,292,0.0,0.0,87,0.00,CLR,,0.06,WeatherDisplay:10.37,2013-08-28 19:09:00,
2013-08-28 15:14:00,74.1,70.0,29.80,SE,135,0.0,0.0,87,0.00,CLR,,0.06,WeatherDisplay:10.37,2013-08-28 19:14:00,
2013-08-28 15:19:00,74.1,69.7,29.79,SSW,202,1.1,1.1,86,0.00,CLR,,0.06,WeatherDisplay:10.37,2013-08-28 19:19:00,
2013-08-28 15:24:00,74.1,69.7,29.79,ENE,68,0.0,0.0,86,0.00,CLR,,0.06,WeatherDisplay:10.37,2013-08-28 19:24:00,
2013-08-28 15:29:00,74.1,69.7,29.79,ENE,68,0.0,0.0,86,0.01,RA,,0.07,WeatherDisplay:10.37,2013-08-28 19:29:00,
2013-08-28 15:34:00,74.1,70.0,29.79,ENE,68,0.0,0.0,87,0.01,RA,,0.07,WeatherDisplay:10.37,2013-08-28 19:34:00,
2013-08-28 15:39:00,73.9,69.8,29.79,West,270,0.0,0.0,87,0.01,CLR,,0.07,WeatherDisplay:10.37,2013-08-28 19:39:00,
2013-08-28 15:44:00,74.1,70.0,29.79,North,0,0.0,0.0,87,0.02,RA,,0.08,WeatherDisplay:10.37,2013-08-28 19:44:00,
2013-08-28 15:49:00,73.9,69.5,29.79,North,0,0.0,0.0,86,0.02,RA,,0.08,WeatherDisplay:10.37,2013-08-28 19:49:00,
2013-08-28 15:54:00,73.8,69.6,29.78,West,270,0.0,0.0,87,0.03,RA,,0.09,WeatherDisplay:10.37,2013-08-28 19:54:00,
2013-08-28 15:59:00,73.8,69.6,29.78,West,270,0.0,0.0,87,0.03,RA,,0.09,WeatherDisplay:10.37,2013-08-28 19:59:00,
2013-08-28 16:04:00,73.8,69.6,29.78,NNE,22,0.0,0.0,87,0.03,CLR,,0.09,WeatherDisplay:10.37,2013-08-28 20:04:00,
2013-08-28 16:09:00,73.6,69.5,29.79,East,90,0.0,0.0,87,0.04,RA,,0.10,WeatherDisplay:10.37,2013-08-28 20:09:00,
2013-08-28 16:14:00,73.6,69.5,29.79,East,90,0.0,0.0,87,0.04,RA,,0.10,WeatherDisplay:10.37,2013-08-28 20:14:00,
2013-08-28 16:19:00,73.4,69.3,29.79,East,90,0.5,0.5,87,0.04,,,0.10,WeatherDisplay:10.37,2013-08-28 20:19:00,
2013-08-28 16:24:00,73.4,69.6,29.79,ENE,68,1.1,1.1,88,0.04,CLR,,0.10,WeatherDisplay:10.37,2013-08-28 20:24:00,
2013-08-28 16:29:00,73.4,69.6,29.78,ENE,68,0.0,0.0,88,0.03,CLR,,0.10,WeatherDisplay:10.37,2013-08-28 20:29:00,
2013-08-28 16:34:00,73.6,69.8,29.78,NE,45,0.0,0.5,88,0.03,CLR,,0.10,WeatherDisplay:10.37,2013-08-28 20:34:00,
2013-08-28 16:39:00,73.6,69.8,29.79,East,90,1.1,1.1,88,0.03,CLR,,0.10,WeatherDisplay:10.37,2013-08-28 20:39:00,
2013-08-28 16:44:00,73.6,69.8,29.78,East,90,0.0,0.0,88,0.02,CLR,,0.10,WeatherDisplay:10.37,2013-08-28 20:44:00,
2013-08-28 16:49:00,73.6,69.8,29.78,ENE,68,0.2,0.2,88,0.02,CLR,,0.10,WeatherDisplay:10.37,2013-08-28 20:49:00,
2013-08-28 16:54:00,73.8,70.0,29.78,ENE,68,0.0,0.0,88,0.01,CLR,,0.10,WeatherDisplay:10.37,2013-08-28 20:54:00,
2013-08-28 16:59:00,73.8,70.0,29.78,WNW,292,1.1,1.1,88,0.01,CLR,,0.10,WeatherDisplay:10.37,2013-08-28 20:59:00,
2013-08-28 17:04:00,74.1,70.3,29.78,WNW,292,0.0,0.0,88,0.01,CLR,,0.10,WeatherDisplay:10.37,2013-08-28 21:04:00,
2013-08-28 17:09:00,74.1,70.3,29.77,ENE,68,2.3,2.3,88,0.00,CLR,,0.10,WeatherDisplay:10.37,2013-08-28 21:09:00,
2013-08-28 17:14:00,74.1,70.3,29.78,East,90,1.1,1.1,88,0.00,CLR,,0.10,WeatherDisplay:10.37,2013-08-28 21:14:00,
2013-08-28 17:19:00,74.1,70.0,29.77,East,90,0.0,0.0,87,0.00,CLR,,0.10,WeatherDisplay:10.37,2013-08-28 21:19:00,
2013-08-28 17:24:00,74.1,70.0,29.77,East,90,0.0,0.0,87,0.00,CLR,,0.10,WeatherDisplay:10.37,2013-08-28 21:24:00,
2013-08-28 17:29:00,73.9,69.8,29.77,NW,315,0.0,0.0,87,0.00,CLR,,0.10,WeatherDisplay:10.37,2013-08-28 21:29:00,
2013-08-28 17:34:00,73.9,69.8,29.77,NE,45,0.0,0.0,87,0.00,CLR,,0.10,WeatherDisplay:10.37,2013-08-28 21:34:00,
2013-08-28 17:39:00,74.1,70.0,29.77,NE,45,0.0,0.0,87,0.00,CLR,,0.10,WeatherDisplay:10.37,2013-08-28 21:39:00,
2013-08-28 17:44:00,74.1,70.0,29.77,NE,45,0.0,0.0,87,0.00,CLR,,0.10,WeatherDisplay:10.37,2013-08-28 21:44:00,
2013-08-28 17:49:00,74.3,70.2,29.77,WNW,292,0.0,0.0,87,0.00,CLR,,0.10,WeatherDisplay:10.37,2013-08-28 21:49:00,
2013-08-28 17:54:00,74.5,70.4,29.77,WNW,292,0.0,0.0,87,0.00,CLR,,0.10,WeatherDisplay:10.37,2013-08-28 21:54:00,
2013-08-28 17:59:00,74.7,70.5,29.78,ENE,68,1.1,1.1,87,0.00,CLR,,0.10,WeatherDisplay:10.37,2013-08-28 21:59:00,
2013-08-28 18:04:00,74.5,70.4,29.78,East,90,0.0,0.0,87,0.00,CLR,,0.10,WeatherDisplay:10.37,2013-08-28 22:04:00,
2013-08-28 18:09:00,74.5,70.4,29.78,NW,315,0.0,0.0,87,0.01,RA,,0.11,WeatherDisplay:10.37,2013-08-28 22:09:00,
2013-08-28 18:14:00,74.7,70.5,29.78,NW,315,0.0,0.0,87,0.01,RA,,0.11,WeatherDisplay:10.37,2013-08-28 22:14:00,
2013-08-28 18:19:00,74.7,70.5,29.78,NW,315,0.0,0.0,87,0.01,,,0.11,WeatherDisplay:10.37,2013-08-28 22:19:00,
2013-08-28 18:24:00,74.7,70.5,29.78,NW,315,0.0,0.0,87,0.01,CLR,,0.11,WeatherDisplay:10.37,2013-08-28 22:24:00,
2013-08-28 18:29:00,74.5,70.4,29.77,NW,315,0.0,0.0,87,0.01,CLR,,0.11,WeatherDisplay:10.37,2013-08-28 22:29:00,
2013-08-28 18:34:00,74.7,70.5,29.77,NW,315,0.0,0.0,87,0.01,CLR,,0.11,WeatherDisplay:10.37,2013-08-28 22:34:00,
2013-08-28 18:39:00,74.5,70.4,29.77,NW,315,0.0,0.0,87,0.01,CLR,,0.11,WeatherDisplay:10.37,2013-08-28 22:39:00,
2013-08-28 18:44:00,74.3,70.2,29.77,NW,315,0.0,0.0,87,0.01,CLR,,0.11,WeatherDisplay:10.37,2013-08-28 22:44:00,
2013-08-28 18:49:00,74.3,70.2,29.77,NW,315,0.0,0.0,87,0.01,CLR,,0.11,WeatherDisplay:10.37,2013-08-28 22:49:00,
2013-08-28 18:54:00,74.1,70.3,29.77,NW,315,0.0,0.0,88,0.01,CLR,,0.11,WeatherDisplay:10.37,2013-08-28 22:54:00,
2013-08-28 18:59:00,73.9,70.2,29.77,NW,315,0.0,0.0,88,0.01,CLR,,0.11,WeatherDisplay:10.37,2013-08-28 22:59:00,
2013-08-28 19:04:00,73.9,70.2,29.77,NW,315,0.0,0.0,88,0.01,CLR,,0.11,WeatherDisplay:10.37,2013-08-28 23:04:00,
2013-08-28 19:09:00,73.9,70.2,29.77,South,180,0.0,0.0,88,0.00,CLR,,0.11,WeatherDisplay:10.37,2013-08-28 23:09:00,
2013-08-28 19:14:00,73.9,70.2,29.77,ESE,112,0.0,0.0,88,0.00,CLR,,0.11,WeatherDisplay:10.37,2013-08-28 23:14:00,
2013-08-28 19:19:00,73.8,70.3,29.77,East,90,0.5,0.5,89,0.00,CLR,,0.11,WeatherDisplay:10.37,2013-08-28 23:19:00,
2013-08-28 19:24:00,73.8,70.3,29.78,East,90,1.1,1.1,89,0.00,CLR,,0.11,WeatherDisplay:10.37,2013-08-28 23:24:00,
2013-08-28 19:29:00,73.6,70.1,29.78,East,90,0.5,0.5,89,0.00,CLR,,0.11,WeatherDisplay:10.37,2013-08-28 23:29:00,
2013-08-28 19:34:00,73.6,70.1,29.78,East,90,0.0,0.0,89,0.00,CLR,,0.11,WeatherDisplay:10.37,2013-08-28 23:34:00,
2013-08-28 19:39:00,73.4,70.0,29.78,East,90,0.2,0.2,89,0.00,CLR,,0.11,WeatherDisplay:10.37,2013-08-28 23:39:00,
2013-08-28 19:44:00,73.4,70.0,29.78,East,90,0.0,0.0,89,0.00,CLR,,0.11,WeatherDisplay:10.37,2013-08-28 23:44:00,
2013-08-28 19:49:00,73.4,70.0,29.77,East,90,0.0,0.0,89,0.00,CLR,,0.11,WeatherDisplay:10.37,2013-08-28 23:49:00,
2013-08-28 19:54:00,73.4,70.0,29.77,East,90,0.0,0.0,89,0.00,CLR,,0.11,WeatherDisplay:10.37,2013-08-28 23:54:00,
2013-08-28 19:59:00,73.4,70.0,29.77,East,90,0.0,0.0,89,0.00,CLR,,0.11,WeatherDisplay:10.37,2013-08-28 23:59:00,
2013-08-28 20:04:00,73.4,70.0,29.78,East,90,0.0,0.0,89,0.00,CLR,,0.11,WeatherDisplay:10.37,2013-08-29 00:04:00,
2013-08-28 20:09:00,73.2,69.8,29.78,East,90,0.0,0.0,89,0.00,CLR,,0.11,WeatherDisplay:10.37,2013-08-29 00:09:00,
2013-08-28 20:14:00,73.2,69.8,29.78,East,90,0.0,0.0,89,0.00,CLR,,0.11,WeatherDisplay:10.37,2013-08-29 00:14:00,
2013-08-28 20:19:00,73.2,69.8,29.78,East,90,0.2,0.2,89,0.00,CLR,,0.11,WeatherDisplay:10.37,2013-08-29 00:19:00,
2013-08-28 20:24:00,73.0,69.9,29.79,East,90,0.0,0.0,90,0.00,CLR,,0.11,WeatherDisplay:10.37,2013-08-29 00:24:00,
2013-08-28 20:29:00,73.0,69.6,29.79,East,90,0.0,0.0,89,0.00,CLR,,0.11,WeatherDisplay:10.37,2013-08-29 00:29:00,
2013-08-28 20:34:00,73.0,69.6,29.79,East,90,0.0,0.0,89,0.00,CLR,,0.11,WeatherDisplay:10.37,2013-08-29 00:34:00,
2013-08-28 20:39:00,73.0,69.6,29.79,East,90,0.0,0.0,89,0.00,CLR,,0.11,WeatherDisplay:10.37,2013-08-29 00:39:00,
2013-08-28 20:44:00,73.0,69.6,29.79,East,90,0.0,0.0,89,0.00,CLR,,0.11,WeatherDisplay:10.37,2013-08-29 00:44:00,
2013-08-28 20:49:00,73.0,69.6,29.79,East,90,0.0,0.0,89,0.00,CLR,,0.11,WeatherDisplay:10.37,2013-08-29 00:49:00,
2013-08-28 20:54:00,73.0,69.6,29.79,East,90,0.0,0.0,89,0.00,CLR,,0.11,WeatherDisplay:10.37,2013-08-29 00:54:00,
2013-08-28 20:59:00,73.0,69.6,29.80,East,90,0.0,0.0,89,0.00,CLR,,0.11,WeatherDisplay:10.37,2013-08-29 00:59:00,
2013-08-28 21:04:00,72.9,69.4,29.80,East,90,0.0,0.0,89,0.00,CLR,,0.11,WeatherDisplay:10.37,2013-08-29 01:04:00,
2013-08-28 21:09:00,72.9,69.4,29.80,East,90,0.0,0.0,89,0.00,CLR,,0.11,WeatherDisplay:10.37,2013-08-29 01:09:00,
2013-08-28 21:14:00,72.9,69.4,29.81,East,90,0.0,0.0,89,0.00,CLR,,0.11,WeatherDisplay:10.37,2013-08-29 01:14:00,
2013-08-28 21:19:00,72.9,69.4,29.81,East,90,0.0,0.0,89,0.00,CLR,,0.11,WeatherDisplay:10.37,2013-08-29 01:19:00,
2013-08-28 21:24:00,72.7,69.2,29.81,East,90,0.0,0.2,89,0.00,CLR,,0.11,WeatherDisplay:10.37,2013-08-29 01:24:00,
2013-08-28 21:29:00,72.7,69.2,29.81,East,90,0.0,0.0,89,0.00,CLR,,0.11,WeatherDisplay:10.37,2013-08-29 01:29:00,
2013-08-28 21:34:00,72.7,69.2,29.81,East,90,0.0,0.5,89,0.00,CLR,,0.11,WeatherDisplay:10.37,2013-08-29 01:34:00,
2013-08-28 21:39:00,72.5,69.4,29.81,East,90,0.0,0.0,90,0.00,CLR,,0.11,WeatherDisplay:10.37,2013-08-29 01:39:00,
2013-08-28 21:44:00,72.5,69.4,29.81,East,90,0.0,0.0,90,0.00,CLR,,0.11,WeatherDisplay:10.37,2013-08-29 01:44:00,
2013-08-28 21:49:00,72.5,69.4,29.81,East,90,0.0,0.0,90,0.00,CLR,,0.11,WeatherDisplay:10.37,2013-08-29 01:49:00,
2013-08-28 21:54:00,72.5,69.4,29.82,East,90,0.0,0.0,90,0.00,CLR,,0.11,WeatherDisplay:10.37,2013-08-29 01:54:00,
2013-08-28 21:59:00,72.3,69.2,29.82,East,90,0.0,0.0,90,0.00,CLR,,0.11,WeatherDisplay:10.37,2013-08-29 01:59:00,
2013-08-28 22:04:00,72.3,69.2,29.81,East,90,0.0,0.0,90,0.00,CLR,,0.11,WeatherDisplay:10.37,2013-08-29 02:04:00,
2013-08-28 22:09:00,72.3,69.2,29.82,ENE,68,1.1,1.1,90,0.00,CLR,,0.11,WeatherDisplay:10.37,2013-08-29 02:09:00,
2013-08-28 22:14:00,72.3,69.2,29.81,East,90,0.0,0.0,90,0.00,CLR,,0.11,WeatherDisplay:10.37,2013-08-29 02:14:00,
2013-08-28 22:19:00,72.3,69.2,29.82,East,90,0.2,0.2,90,0.00,CLR,,0.11,WeatherDisplay:10.37,2013-08-29 02:19:00,
2013-08-28 22:24:00,72.3,69.2,29.81,East,90,0.0,0.0,90,0.00,CLR,,0.11,WeatherDisplay:10.37,2013-08-29 02:24:00,
2013-08-28 22:29:00,72.1,69.0,29.81,East,90,0.0,0.0,90,0.00,CLR,,0.11,WeatherDisplay:10.37,2013-08-29 02:29:00,
2013-08-28 22:34:00,72.1,69.0,29.81,East,90,0.0,0.0,90,0.00,CLR,,0.11,WeatherDisplay:10.37,2013-08-29 02:34:00,
2013-08-28 22:39:00,72.1,69.0,29.81,East,90,0.0,0.0,90,0.00,CLR,,0.11,WeatherDisplay:10.37,2013-08-29 02:39:00,
2013-08-28 22:44:00,72.0,68.9,29.81,East,90,0.0,0.0,90,0.00,CLR,,0.11,WeatherDisplay:10.37,2013-08-29 02:44:00,
2013-08-28 22:49:00,72.0,68.9,29.81,East,90,0.0,0.0,90,0.00,CLR,,0.11,WeatherDisplay:10.37,2013-08-29 02:49:00,
2013-08-28 22:54:00,71.8,68.7,29.81,East,90,0.0,0.0,90,0.00,CLR,,0.11,WeatherDisplay:10.37,2013-08-29 02:54:00,
2013-08-28 22:59:00,71.8,68.7,29.81,East,90,0.0,0.0,90,0.00,CLR,,0.11,WeatherDisplay:10.37,2013-08-29 02:59:00,
2013-08-28 23:04:00,71.6,68.5,29.81,East,90,0.0,0.0,90,0.00,CLR,,0.11,WeatherDisplay:10.37,2013-08-29 03:04:00,
2013-08-28 23:09:00,71.6,68.5,29.81,East,90,0.0,0.0,90,0.00,CLR,,0.11,WeatherDisplay:10.37,2013-08-29 03:09:00,
2013-08-28 23:14:00,71.6,68.5,29.81,East,90,0.0,0.0,90,0.00,CLR,,0.11,WeatherDisplay:10.37,2013-08-29 03:14:00,
2013-08-28 23:19:00,71.4,68.3,29.81,East,90,0.0,0.0,90,0.00,CLR,,0.11,WeatherDisplay:10.37,2013-08-29 03:19:00,
2013-08-28 23:24:00,71.4,68.3,29.81,East,90,0.0,0.0,90,0.00,CLR,,0.11,WeatherDisplay:10.37,2013-08-29 03:24:00,
2013-08-28 23:29:00,71.2,68.2,29.81,East,90,0.0,0.0,90,0.00,CLR,,0.11,WeatherDisplay:10.37,2013-08-29 03:29:00,
2013-08-28 23:34:00,71.2,68.2,29.81,East,90,0.0,0.0,90,0.00,CLR,,0.11,WeatherDisplay:10.37,2013-08-29 03:34:00,
2013-08-28 23:39:00,71.2,68.2,29.81,East,90,0.0,0.0,90,0.00,CLR,,0.11,WeatherDisplay:10.37,2013-08-29 03:39:00,
2013-08-28 23:44:00,71.1,68.0,29.81,East,90,0.0,0.0,90,0.00,CLR,,0.11,WeatherDisplay:10.37,2013-08-29 03:44:00,
2013-08-28 23:49:00,71.1,68.0,29.81,East,90,0.0,0.0,90,0.00,CLR,,0.11,WeatherDisplay:10.37,2013-08-29 03:49:00,
2013-08-28 23:54:00,71.1,68.0,29.81,East,90,0.5,0.5,90,0.00,CLR,,0.11,WeatherDisplay:10.37,2013-08-29 03:54:00,
2013-08-28 23:59:00,70.9,68.1,29.81,East,90,0.0,0.0,91,0.00,CLR,,0.11,WeatherDisplay:10.37,2013-08-29 03:59:00,